GSAT0223 (GALILEO 27)

Last updated on Wed Jul 02 2025 00:02:33 GMT+0000 (Coordinated Universal Time)

1 49809U 21116A 25182.20999720 -.00000098 00000+0 00000+0 0 9993 2 49809 57.2597 351.1513 0002131 179.2577 178.1047 1.70476205 22195
UTC large
Height (km)
Speed (km/s)
/
Latitude / Longitude
Inclination (degrees)
Orbital Period (minutes)
Azimuth
Elevation
Range (km)
Doppler Factor

Next 0 passes for location: London (51.5072 / 0.1276)

Sorry there are no passes over London.